Wind_Speed
39 36 38 39 35 39 41 43 51 45 41 44 37 34 31 24 33 34 29 28 25 27 32 35 37 39 37 28 20 21 20 17
40 36 36 35 34 38 42 43 45 48 48 49 45 45 37 30 34 37 37 34 35 35 29 31 35 31 27 22 24 25 22 19
41 36 34 31 25 28 36 35 42 49 52 54 43 44 43 35 37 45 42 36 38 31 34 30 30 26 27 24 22 23 23 21
35 32 29 23 21 24 26 27 37 49 59 57 49 51 42 35 40 46 45 42 26 30 26 31 31 30 31 30 26 17 20 22
38 32 26 16 19 19 14 18 29 43 60 52 39 45 48 44 40 34 34 32 41 33 33 30 26 37 36 34 25 16 37 36
39 30 22 17 18 19 16 19 33 46 51 54 41 40 49 47 42 38 22 28 25 20 23 25 23 39 43 38 28 22 34 35
33 27 20 17 21 18 23 32 37 40 49 48 46 57 55 55 42 28 19 21 21 20 27 17 18 33 38 40 30 26 30 34
31 27 17 16 24 22 31 37 40 43 45 52 49 56 55 52 41 21 24 25 22 24 30 20 17 28 36 36 32 28 36 40
32 26 21 17 22 24 37 29 46 47 43 54 51 50 53 50 45 34 28 23 28 29 25 28 29 32 36 39 36 32 38 40
33 28 19 20 21 28 35 41 45 52 49 53 50 55 48 45 46 36 33 35 36 29 31 27 29 35 40 40 33 37 41 34
32 31 22 25 23 25 41 44 44 55 52 52 62 52 49 47 48 45 41 42 40 35 31 29 28 34 38 32 27 30 34 30
29 30 24 18 31 26 35 48 47 51 51 54 54 54 55 52 54 52 50 46 43 38 31 37 35 33 32 34 38 38 37 34
25 28 27 20 30 33 23 37 47 47 52 53 60 63 62 66 62 58 54 40 45 42 38 37 36 39 40 43 41 41 45 42
27 26 24 21 17 37 39 33 36 49 46 49 52 56 61 63 66 68 63 48 46 48 47 45 39 42 46 47 45 45 49 43
21 21 19 17 16 15 37 42 37 44 52 44 46 45 48 54 63 60 51 55 52 54 55 49 47 45 49 52 54 54 53 47
18 19 19 16 15 15 19 39 40 37 47 49 50 44 44 48 48 48 48 49 49 49 51 52 54 51 56 57 59 59 52 57
15 19 18 11 12 13 13 17 37 39 46 50 49 52 49 49 48 48 47 46 47 46 51 53 53 56 51 54 55 54 57 61
18 18 19 18 8 12 14 12 14 34 52 53 56 52 56 51 54 52 57 59 57 59 60 59 60 56 57 60 61 63 63 66
24 19 21 19 10 11 16 18 16 16 17 27 44 51 55 60 59 59 58 62 65 62 64 67 62 58 61 62 63 66 69 69
26 23 19 22 18 16 15 17 20 24 22 19 21 31 44 50 57 61 61 63 66 67 67 67 63 62 63 63 65 67 69 71
Wind_Direction
293 282 276 270 264 263 256 240 231 230 212 197 211 222 212 232 253 245 243 251 258 269 279 283 277 271 264 262 241 229 232 228
298 288 276 273 268 263 251 245 231 220 214 199 197 214 211 218 250 251 251 272 275 276 286 281 272 262 251 220 205 213 221 240
302 291 277 281 262 249 249 246 231 217 207 202 197 213 217 225 254 253 261 264 276 284 288 276 266 242 216 207 211 207 226 242
309 293 285 277 260 262 256 239 225 211 200 199 202 213 216 236 249 253 260 266 279 282 283 292 265 219 201 202 201 222 232 238
313 297 286 260 263 270 248 213 200 201 192 193 209 219 215 224 247 258 266 270 276 280 289 288 258 210 206 217 198 262 247 251
313 300 277 257 253 256 224 204 185 186 191 189 199 211 220 226 242 258 275 272 279 288 290 301 241 212 210 213 210 251 239 243
315 303 269 261 247 241 207 186 183 183 191 195 206 213 219 226 244 263 268 278 285 280 296 303 221 231 226 217 212 232 249 248
320 311 265 253 250 233 196 195 196 188 190 195 211 217 217 230 246 257 274 276 283 281 290 276 240 243 240 232 227 237 254 246
317 307 272 251 244 236 200 198 202 197 198 200 210 218 228 235 247 252 263 288 277 284 245 241 235 232 240 235 230 261 247 240
317 314 292 247 248 234 210 202 206 208 204 205 212 220 226 234 244 258 266 267 276 265 231 237 238 231 234 228 229 257 240 248
315 315 306 242 245 240 221 211 206 206 211 218 220 224 233 244 249 250 258 259 268 265 238 225 225 229 228 229 245 244 249 262
316 321 315 282 232 243 232 223 216 217 220 223 228 233 237 240 248 252 253 260 257 246 231 235 232 221 234 248 255 258 261 262
308 319 321 309 233 236 240 236 229 228 227 229 231 234 240 246 249 252 258 254 243 236 227 228 239 232 247 258 257 258 258 268
299 310 321 313 313 232 238 246 243 232 236 240 237 241 242 245 248 253 255 248 237 234 233 236 245 243 251 255 260 258 260 269
290 304 319 327 317 291 237 240 248 238 236 242 246 247 249 251 251 252 251 249 252 236 238 245 246 250 259 264 264 262 268 268
284 292 306 319 330 310 266 245 242 241 233 236 244 250 251 248 249 253 251 244 245 243 238 252 256 258 260 261 264 265 262 269
281 282 296 334 344 331 308 268 247 243 237 239 249 252 249 251 252 247 244 244 247 247 253 258 260 260 257 260 262 261 260 268
269 280 282 295 334 330 333 309 270 255 251 257 252 252 251 250 248 250 248 248 242 249 252 256 262 259 260 261 264 267 267 270
255 268 274 282 290 304 313 322 322 303 283 260 248 249 251 251 253 253 250 246 248 254 256 257 260 259 263 262 265 266 266 268
252 259 266 269 274 284 291 304 314 317 319 310 293 267 257 252 257 253 254 255 252 255 256 256 257 260 260 261 263 264 266 268
Height
10688 10689 10684 10681 10682 10682 10683 10688 10691 10700 10708 10710 10715 10722 10727 10731 10732 10735 10739 10742 10746 10750 10752 10754 10755 10751 10748 10758 10760 10763 10766 10768
10680 10678 10674 10673 10671 10672 10672 10675 10680 10686 10698 10703 10708 10712 10718 10724 10725 10727 10733 10735 10740 10744 10746 10750 10748 10744 10744 10750 10755 10756 10760 10762
10671 10668 10665 10665 10663 10662 10662 10665 10668 10674 10684 10695 10700 10705 10713 10717 10718 10721 10726 10729 10734 10737 10740 10741 10741 10737 10740 10745 10749 10752 10754 10757
10666 10661 10658 10657 10656 10655 10655 10656 10659 10666 10674 10687 10696 10702 10708 10714 10713 10716 10721 10723 10728 10731 10734 10737 10735 10732 10734 10739 10743 10747 10751 10753
10659 10656 10652 10651 10650 10649 10651 10653 10656 10661 10671 10684 10692 10696 10704 10708 10710 10710 10715 10717 10723 10725 10727 10733 10729 10727 10730 10735 10738 10739 10745 10748
10653 10650 10646 10647 10646 10647 10649 10653 10656 10662 10671 10683 10688 10695 10699 10703 10703 10707 10710 10711 10717 10718 10723 10727 10725 10723 10724 10731 10735 10736 10740 10742
10649 10647 10643 10643 10645 10646 10648 10653 10659 10664 10672 10681 10686 10690 10693 10696 10699 10700 10703 10706 10711 10714 10718 10722 10721 10721 10724 10728 10730 10732 10735 10736
10645 10642 10640 10641 10641 10644 10648 10654 10658 10663 10671 10677 10681 10686 10688 10690 10694 10696 10699 10702 10706 10709 10712 10713 10719 10719 10720 10724 10728 10727 10730 10730
10640 10639 10637 10638 10638 10641 10647 10652 10658 10664 10669 10674 10675 10679 10682 10686 10688 10693 10695 10697 10702 10704 10706 10709 10712 10713 10715 10718 10721 10721 10721 10723
10636 10634 10633 10634 10635 10637 10643 10648 10656 10661 10665 10669 10671 10673 10678 10681 10685 10688 10691 10694 10698 10702 10704 10704 10709 10708 10706 10712 10715 10714 10715 10717
10633 10629 10628 10629 10632 10634 10638 10644 10650 10656 10660 10664 10668 10671 10674 10677 10679 10684 10687 10689 10693 10696 10699 10699 10704 10706 10705 10707 10709 10710 10710 10712
10630 10627 10624 10623 10626 10630 10634 10638 10643 10649 10655 10659 10662 10666 10669 10672 10674 10678 10681 10683 10686 10688 10691 10694 10699 10701 10702 10703 10702 10704 10702 10705
10630 10625 10622 10620 10621 10624 10629 10632 10635 10640 10646 10651 10658 10661 10662 10664 10667 10670 10674 10675 10678 10681 10683 10688 10691 10693 10695 10693 10693 10694 10695 10697
10628 10623 10620 10615 10615 10619 10622 10626 10629 10634 10638 10641 10646 10649 10652 10655 10657 10662 10666 10668 10669 10673 10674 10677 10681 10683 10685 10686 10684 10684 10684 10688
10624 10622 10619 10615 10611 10612 10616 10621 10624 10627 10629 10633 10637 10640 10643 10646 10649 10653 10657 10660 10661 10663 10667 10668 10670 10672 10675 10676 10676 10674 10675 10677
10620 10619 10617 10613 10610 10610 10610 10613 10618 10621 10625 10630 10632 10633 10636 10638 10640 10643 10648 10651 10651 10654 10658 10659 10661 10663 10665 10665 10666 10666 10667 10666
10614 10614 10613 10611 10609 10607 10606 10607 10610 10613 10617 10620 10623 10625 10627 10629 10632 10635 10637 10640 10642 10645 10648 10650 10651 10652 10652 10654 10655 10656 10657 10656
10609 10609 10609 10609 10607 10607 10605 10604 10605 10606 10609 10609 10612 10615 10618 10621 10624 10626 10628 10629 10631 10633 10635 10638 10640 10642 10642 10643 10643 10644 10643 10643
10603 10605 10605 10605 10605 10605 10604 10603 10601 10601 10600 10599 10601 10603 10606 10608 10611 10614 10615 10616 10619 10621 10623 10625 10626 10628 10629 10629 10631 10631 10631 10630
10596 10598 10599 10599 10600 10601 10600 10599 10598 10596 10595 10593 10592 10591 10592 10596 10598 10600 10602 10604 10606 10608 10609 10611 10613 10615 10615 10615 10616 10616 10616 10616